Meteo pe oră la Allmend

Astăzi, 19 Ianuarie, Marţi

Timp Temperatura Precipitaţii Vânt Presiune Umiditate
00:00 -3°C° 0 mm 1 m/s 694 mmHg 79%
01:00 -4°C° 0 mm 1 m/s 693 mmHg 77%
02:00 -4°C° 0 mm 1 m/s 693 mmHg 76%
03:00 -4°C° 0 mm 1 m/s 692 mmHg 75%
04:00 -4°C° 0 mm 1 m/s 692 mmHg 74%
05:00 -4°C° 0 mm 1 m/s 692 mmHg 73%
06:00 -3°C° 0 mm 1 m/s 692 mmHg 73%
07:00 -5°C° 0 mm 2 m/s 692 mmHg 72%
08:00 -2°C° 0 mm 1 m/s 691 mmHg 73%
09:00 0°C° 0 mm 1 m/s 691 mmHg 74%
10:00 +1°C° 0 mm 1 m/s 691 mmHg 74%
11:00 +2°C° 0 mm 1 m/s 691 mmHg 77%
12:00 +3°C° 0 mm 1 m/s 691 mmHg 80%
13:00 +3°C° 0 mm 2 m/s 690 mmHg 81%
14:00 +4°C° 0 mm 1 m/s 690 mmHg 79%
15:00 +4°C° 0 mm 1 m/s 690 mmHg 78%
16:00 +4°C° 0 mm 1 m/s 689 mmHg 77%
17:00 +3°C° 0 mm 1 m/s 689 mmHg 75%
18:00 +1°C° 0 mm 2 m/s 689 mmHg 73%
19:00 -1°C° 0 mm 2 m/s 689 mmHg 71%
20:00 -1°C° 0 mm 2 m/s 689 mmHg 70%
21:00 -2°C° 0 mm 2 m/s 689 mmHg 69%
22:00 -2°C° 0 mm 2 m/s 688 mmHg 68%
23:00 -2°C° 0 mm 2 m/s 688 mmHg 68%

Mâine, 20 Ianuarie, Miercuri

Timp Temperatura Precipitaţii Vânt Presiune Umiditate
00:00 -2°C° 0 mm 2 m/s 688 mmHg 67%
01:00 -2°C° 0 mm 2 m/s 688 mmHg 67%
02:00 -2°C° 0 mm 2 m/s 688 mmHg 67%
03:00 -3°C° 0 mm 2 m/s 687 mmHg 68%
04:00 -3°C° 0 mm 2 m/s 687 mmHg 68%
05:00 -3°C° 0 mm 2 m/s 687 mmHg 68%
06:00 -3°C° 0 mm 2 m/s 687 mmHg 68%
07:00 -3°C° 0 mm 2 m/s 686 mmHg 68%
08:00 -2°C° 0 mm 2 m/s 686 mmHg 69%
09:00 -1°C° 0 mm 2 m/s 687 mmHg 71%
10:00 +1°C° 0 mm 2 m/s 687 mmHg 72%
11:00 +2°C° 0 mm 2 m/s 686 mmHg 76%
12:00 +2°C° 0 mm 2 m/s 686 mmHg 80%
13:00 +3°C° 0 mm 2 m/s 685 mmHg 83%
14:00 +3°C° 0 mm 2 m/s 685 mmHg 83%
15:00 +2°C° 0 mm 2 m/s 684 mmHg 82%
16:00 +2°C° 0 mm 2 m/s 684 mmHg 81%
17:00 +1°C° 0 mm 2 m/s 684 mmHg 80%
18:00 -1°C° 0 mm 3 m/s 683 mmHg 79%
19:00 -2°C° 0 mm 3 m/s 683 mmHg 78%
20:00 -2°C° 0 mm 3 m/s 683 mmHg 78%
21:00 -2°C° 0 mm 3 m/s 683 mmHg 78%
22:00 -2°C° 0 mm 3 m/s 683 mmHg 78%
23:00 -2°C° 0 mm 3 m/s 683 mmHg 78%

Poimâine, 21 Ianuarie, Joi

Timp Temperatura Precipitaţii Vânt Presiune Umiditate
00:00 -2°C° 0 mm 3 m/s 683 mmHg 79%
01:00 -2°C° 0 mm 3 m/s 683 mmHg 79%
02:00 -2°C° 0 mm 3 m/s 682 mmHg 79%
03:00 -2°C° 0 mm 3 m/s 682 mmHg 79%
04:00 -2°C° 0 mm 3 m/s 682 mmHg 79%
05:00 -1°C° 0 mm 3 m/s 682 mmHg 79%
06:00 -1°C° 0 mm 3 m/s 682 mmHg 79%
07:00 -1°C° 0 mm 3 m/s 682 mmHg 79%
08:00 -1°C° 0 mm 3 m/s 682 mmHg 79%
09:00 +1°C° 0 mm 2 m/s 682 mmHg 79%
10:00 +2°C° 0 mm 2 m/s 682 mmHg 79%
11:00 +3°C° 0 mm 2 m/s 682 mmHg 81%
12:00 +4°C° 0 mm 2 m/s 682 mmHg 82%
13:00 +5°C° 0 mm 2 m/s 682 mmHg 84%
14:00 +4°C° 0 mm 2 m/s 681 mmHg 85%
15:00 +4°C° 0 mm 2 m/s 681 mmHg 85%
16:00 +3°C° 0 mm 2 m/s 680 mmHg 86%
17:00 +2°C° 0 mm 2 m/s 680 mmHg 84%
18:00 +2°C° 0 mm 2 m/s 679 mmHg 83%
19:00 0°C° 0 mm 3 m/s 679 mmHg 81%
20:00 0°C° 0 mm 3 m/s 679 mmHg 81%
21:00 0°C° 0 mm 3 m/s 678 mmHg 81%
22:00 +1°C° 0 mm 3 m/s 678 mmHg 81%
23:00 +1°C° 0.1 mm 3 m/s 678 mmHg 83%

22 Ianuarie, Vineri

Timp Temperatura Precipitaţii Vânt Presiune Umiditate
00:00 +2°C° 0.1 mm 2 m/s 678 mmHg 84%
01:00 +2°C° 0.1 mm 2 m/s 677 mmHg 86%
02:00 +1°C° 0.1 mm 2 m/s 677 mmHg 85%
03:00 +1°C° 0.1 mm 2 m/s 676 mmHg 85%
04:00 +1°C° 0.1 mm 2 m/s 676 mmHg 85%
05:00 +1°C° 0.1 mm 2 m/s 676 mmHg 84%
06:00 +1°C° 0.1 mm 2 m/s 676 mmHg 84%
07:00 +1°C° 0.1 mm 2 m/s 676 mmHg 84%
08:00 +2°C° 0.5 mm 2 m/s 676 mmHg 87%
09:00 +2°C° 0.5 mm 2 m/s 676 mmHg 89%
10:00 +2°C° 0.5 mm 2 m/s 677 mmHg 92%
11:00 +3°C° 0.5 mm 1 m/s 677 mmHg 94%
12:00 +3°C° 0.5 mm 1 m/s 676 mmHg 95%
13:00 +3°C° 0.5 mm 1 m/s 676 mmHg 97%
14:00 +3°C° 0 mm 1 m/s 676 mmHg 97%
15:00 +2°C° 0 mm 0 m/s 675 mmHg 97%
16:00 +2°C° 0 mm 0 m/s 675 mmHg 98%
17:00 +1°C° 0 mm 0 m/s 675 mmHg 97%
18:00 +1°C° 0 mm 0 m/s 674 mmHg 96%
19:00 0°C° 0 mm 0 m/s 674 mmHg 95%
20:00 0°C° 0.3 mm 0 m/s 674 mmHg 95%
21:00 0°C° 0.3 mm 0 m/s 674 mmHg 96%
22:00 0°C° 0.3 mm 0 m/s 674 mmHg 97%
23:00 0°C° 1.3 mm 0 m/s 674 mmHg 97%

23 Ianuarie, Sâmbătă

Timp Temperatura Precipitaţii Vânt Presiune Umiditate
00:00 +1°C° 1.3 mm 1 m/s 675 mmHg 98%
01:00 +1°C° 1.3 mm 1 m/s 675 mmHg 99%
02:00 +1°C° 1.6 mm 1 m/s 675 mmHg 98%
03:00 -1°C° 1.6 mm 2 m/s 676 mmHg 98%
04:00 -2°C° 1.6 mm 2 m/s 676 mmHg 97%
05:00 0°C° 0.3 mm 1 m/s 676 mmHg 97%
06:00 0°C° 0.3 mm 1 m/s 676 mmHg 96%
07:00 0°C° 0.3 mm 1 m/s 676 mmHg 96%
08:00 0°C° 0 mm 1 m/s 676 mmHg 95%
09:00 0°C° 0 mm 1 m/s 676 mmHg 94%
10:00 0°C° 0 mm 1 m/s 676 mmHg 93%
11:00 +1°C° 0.1 mm 1 m/s 676 mmHg 92%
12:00 +2°C° 0.1 mm 1 m/s 675 mmHg 91%
13:00 +2°C° 0.1 mm 1 m/s 675 mmHg 90%
14:00 +2°C° 0 mm 1 m/s 675 mmHg 91%
15:00 +1°C° 0 mm 0 m/s 675 mmHg 92%
16:00 +1°C° 0 mm 0 m/s 674 mmHg 93%
17:00 0°C° 0.2 mm 0 m/s 675 mmHg 93%
18:00 +1°C° 0.2 mm 1 m/s 675 mmHg 94%
19:00 0°C° 0.2 mm 1 m/s 676 mmHg 95%
20:00 -2°C° 1 mm 2 m/s 676 mmHg 94%
21:00 -2°C° 1 mm 3 m/s 676 mmHg 94%
22:00 -3°C° 1 mm 4 m/s 677 mmHg 94%
23:00 -4°C° 0.1 mm 3 m/s 677 mmHg 93%

24 Ianuarie, Duminică

Timp Temperatura Precipitaţii Vânt Presiune Umiditate
00:00 -5°C° 0.1 mm 3 m/s 677 mmHg 91%
01:00 -5°C° 0.1 mm 2 m/s 677 mmHg 90%
02:00 -5°C° 0 mm 2 m/s 677 mmHg 88%
03:00 -5°C° 0 mm 2 m/s 677 mmHg 87%
04:00 -6°C° 0 mm 2 m/s 677 mmHg 86%
05:00 -6°C° 0 mm 2 m/s 678 mmHg 86%
06:00 -4°C° 0 mm 1 m/s 678 mmHg 86%
07:00 -4°C° 0 mm 1 m/s 678 mmHg 86%
08:00 -3°C° 0 mm 1 m/s 679 mmHg 86%
09:00 -2°C° 0 mm 1 m/s 679 mmHg 86%
10:00 -1°C° 0 mm 1 m/s 680 mmHg 86%
11:00 -1°C° 0 mm 1 m/s 680 mmHg 86%
12:00 -2°C° 0 mm 2 m/s 680 mmHg 85%
13:00 -1°C° 0 mm 2 m/s 680 mmHg 84%
14:00 -1°C° 0 mm 2 m/s 680 mmHg 85%
15:00 -1°C° 0 mm 2 m/s 679 mmHg 86%
16:00 -1°C° 0 mm 2 m/s 679 mmHg 87%
17:00 -2°C° 0.1 mm 2 m/s 679 mmHg 88%
18:00 -3°C° 0.1 mm 2 m/s 680 mmHg 89%
19:00 -3°C° 0.1 mm 2 m/s 680 mmHg 89%
20:00 -4°C° 1.2 mm 2 m/s 680 mmHg 91%
21:00 -5°C° 1.2 mm 3 m/s 681 mmHg 92%
22:00 -5°C° 1.2 mm 3 m/s 682 mmHg 94%
23:00 -6°C° 0.1 mm 3 m/s 682 mmHg 91%
Arată mai mult

Formular de consimțământ

Meteoprog și furnizorii noștri de servicii pot stoca și accesa date personale, precum cookies, identificatori de dispozitiv sau alte tehnologii similare pe dispozitivul dumneavoastră și procesa astfel de date pentru a personaliza conținutul și reclamele, dar și pentru a oferi caracteristici de social media și pentru a analiza traficul.

  • Stocarea și/sau accesarea informațiilor pe dispozitivul dumneavoastră

    Cookies, identificatori de dispozitiv sau alte informații pot fi stocate sau accesate pe dispozitiv în scopurile indicate mai sus.

  • Reclame și conținut personalizat, evaluarea reclamelor și a conținutului, informații despre audiențe și dezvoltarea produselor

    Reclamele și conținutul pot fi personalizate pe baza unui profil. Pot fi adăugate date suplimentare pentru a personaliza mai bine reclamele și conținutul. Performanța reclamelor și conținutului poate fi măsurată. Pot fi obținute informații despre utilizatorii care au văzut reclamele și conținutul. Aceste date pot fi utilizate pentru a dezvolta sau îmbunătăți experiența utilizatorilor, sistemele și software-ul.

Dând clic pe ‘Sunt de acord’, permiteți utilizarea cookie-urilor menționate, a identificatorilor de dispozitiv, balizelor web sau altor tehnologii similare. Setările pot fi modificate din browser-ul dispozitivului dumneavoastră.

În anumite scopuri, interesele legitime pot prima asupra consimțământului. Puteți citi mai multe informații în acest sens în Politica privind Confidențialitatea Datelor și Cookie.